Weather in Lubumbashi

Democratic Republic of the Congo     11°40′30″S   27°29′19″E
temp.,
°C
wind,
m/s
gust,
m/s
humid.,
%
clouds,
%
prec.,
mm/h
press.,
hPa
HPBL,
m
26 june, sun
sun2601:00+10se227094 0.0 102143
04:00+9se228065 0.0 102235
07:00+13ese3136894 0.0 1023497
10:00+21e57405 0.0 10211374
13:00+24e33305 0.0 10172149
16:00+23ese24350 0.0 1016157
19:00+16se11490 0.0 102011
22:00+15se4125239 0.0 1022649
27 june, mon
mon2701:00+13se313645 0.0 1022596
04:00+9se22815 0.0 102334
07:00+13ese413665 0.0 1024617
10:00+21ese58410 0.0 10221483
13:00+24se45310 0.0 10182253
16:00+22ese36345 0.0 1018871
19:00+17se4114912 0.0 1021693
22:00+13se414640 0.0 1024730
28 june, tue
tue2801:00+11se29700 0.0 1024306
04:00+9se29910 0.0 1024295
07:00+12ese4128070 0.0 1025688
10:00+19e585011 0.0 10241424
13:00+22e56387 0.0 10191931
16:00+19ese45455 0.0 10191577
19:00+12se312760 0.0 1023464
22:00+10se210875 0.0 1024271
29 june, wed
wed2901:00+9sse211897 0.0 1023279
04:00+9sse25905 0.0 102399
07:00+13ese39705 0.0 1023391
10:00+20e454429 0.0 10211460
13:00+23e323594 0.0 10162095
16:00+22ese233943 0.0 1016196
19:00+16e225960 0.0 101923
22:00+14se3106687 0.0 1020402
30 june, thu
thu3001:00+12ese287625 0.0 1019234
04:00+10se228649 0.0 102034
07:00+14ese3106762 0.0 1021543
10:00+21e4649100 0.0 10201132
13:00+23e444394 0.0 10161538
16:00+22se344687 0.0 1016619
19:00+15ese236947 0.0 101956
22:00+13sse24775 0.0 101972